SL-8 DEB, 1618

Orbit data source: Space-Track

SL-8 DEB, 1618 is space debris in LEO originally from a launch on Sat, 18 Sep 1965 UTC launched from the Tyuratam Missile And Space Complex (TTMTR). Debris objects in space refer to the collection of defunct objects orbiting the Earth. Examples of debris include non-operational satellites, rocket bodies, and fragments generated from explosions, collisions, or faulty payload assembly.

Loading next visibility...
SL-8 DEB details
Identifier
1618, 1965-073K
Orbit
LEO
Last TLE update22 hours ago
Origin
Flag of CISRVSN (CIS)
ManufacturerUnknown
MissionSpacecraft
Bus & MotorUnknown
MassUnknown
Launch date (UTC)
1965-09-18 (59 years ago)
Launch vehicleUnknown
Launch site
Tyuratam Missile And Space Complex (TTMTR)
Object type
Payload
Rocket body
Debris
Shape & HBRUnknown
Radar Cross SectionMedium (>0.1 m² and <1 m²)

Expand to show TLE details & history

TLE from 22 hours ago
0 SL-8 DEB
1 01618U 65073K   24355.76709206  .00000188  00000-0  21617-2 0  9999
2 01618  56.1762 118.8304 0223497 285.3582 227.3464 12.30244696656237
Epoch: 2024-12-20T18:24Z
Definitive object data (Epoch: 2024-12-20T18:24:36.753Z)
Latitude23.91372°
Longitude-84.34976°
Altitude1,671.433 km
Speed6.986 km/s
True Right ascension18h 46m 31s
True Declination23° 48' 04"
Sunlit
Object was in daylight at TLE epoch
Visualization TLE readout
Latitude6.28437°
Longitude-73.69393°
Altitude1,617.77 km
Speed7.032 km/s
Apparent Right ascension21h 56m 15s
Apparent Declination-23° 01' 42"
Sunlit
Object is in daylight
Visualization observer readout
Local Sidereal Time15:01:19
Azimuth100.138° ESE
Elevation-24.744°
Doppler factor1
Orbital elements
Apogee altitude1,725.187 km
Perigee altitude1,370.891 km
Semi-major axis7,926.176 km
Eccentricity0.0223497
Inclination56.1762°
RAAN118.8304°
Arg. of periapsis285.3582°
True anomaly225.49815°
Mean anomaly227.3464°
Eccentric anomaly226.41878°
Mean motion3.07573 °/min
BSTAR0.0021617
Orbital period117.05 mins
Loading maneuver chart data...
Loading historical data...
Loading historical data...
Loading historical data...
Loading historical data...
Loading historical data...
Loading historical data...
Loading historical data...

SL-8 DEB Visibility forecast

Observer location: undefined°, undefined

Span
Click to sort rows by Start time (UTC) header in descending order
Start Az.
Max El. time (UTC)
Max El. Az.
Max El.
End time (UTC)
End Az.
19 mins2024-12-21 17:29:57.013Z317.683° NNW2024-12-21 17:38:57.013Z28.366° NE41.888°2024-12-21 17:48:57.013Z118.316° SE
16 mins2024-12-21 19:33:57.013Z301.22° NW2024-12-21 19:41:57.013Z233.327° WSW35.123°2024-12-21 19:49:57.013Z172.564° S
13 mins2024-12-22 08:40:57.013Z157.764° S2024-12-22 08:46:57.013Z112.144° ESE22.717°2024-12-22 08:53:57.013Z65.676° ENE
18 mins2024-12-22 10:39:57.013Z222.488° SW2024-12-22 10:47:57.013Z207.364° SW44.996°2024-12-22 10:57:57.013Z45.697° ENE
17 mins2024-12-22 12:43:57.013Z275.113° WNW2024-12-22 12:51:57.013Z340.832° N32.566°2024-12-22 13:00:57.013Z44.753° NE
16 mins2024-12-22 14:49:57.013Z311.824° NW2024-12-22 14:56:57.013Z3.472° NNE27.98°2024-12-22 15:05:57.013Z66.339° ENE
|